User: anonymous   Login
Location: Hickory_CSC
(35.7330°N, 81.3330°W)
Time: 13:12:16
(UTC-04:00)
Language:

Cosmos 1356 Rocket - Orbit

View from above orbital plane
View from above orbital plane
View from above satellite
View from above satellite

Ground track
Ground track

The orbit data is extracted from the following two-line orbital elements,

1 13154U 82039B   15215.17093243  .00000711  00000-0  58145-4 0  9995
2 13154 081.1845 282.3302 0040791 358.9952 001.1177 14.97542620801337
Epoch (UTC): 03 August 2015 04:06:08
Eccentricity: 0.0040791
inclination: 81.1845°
perigee height: 546 km
apogee height: 603 km
right ascension of ascending node: 282.3302°
argument of perigee: 358.9952°
revolutions per day: 14.97542620
mean anomaly at epoch: 1.1177°
orbit number at epoch: 80133

The dashed part of the orbit path shows where the satellite is in the earth's shadow,  

DLR